Skip Page Navigation
NASA JPL Caltech
NASA Logo - Jet Propulsion Laboratory + View the NASA Portal
+ Near-Earth Object (NEO) Program
Search JPL
JPL Home Earth Solar System Stars & Galaxies Technology
JPL Solar System Dynamics
BODIES ORBITS EPHEMERIDES TOOLS PHYSICAL DATA DISCOVERY FAQ SITE MAP
JPL Small-Body Database Browser
Search: [ help ]  
59241 (1999 CC4)
Classification: Main-belt Asteroid          SPK-ID: 2059241
Ephemeris | Orbit Diagram | Orbital Elements | Physical Parameters | Discovery Circumstances | Close-Approach Data ]

[ show orbit diagram ]
Orbital Elements at Epoch 2457000.5 (2014-Dec-09.0) TDB
Reference: JPL 4 (heliocentric ecliptic J2000)
 Element Value Uncertainty (1-sigma)   Units 
e .1135659874773267 6.2234e-08  
a 2.303751202497564 1.4377e-08 AU
q 2.042123422283849 1.4012e-07 AU
i 5.522970251018532 6.9645e-06 deg
node 138.8484644415733 5.3835e-05 deg
peri 343.6341717515772 6.3611e-05 deg
M 200.6814960174571 2.9558e-05 deg
tp 2457565.717380730397
(2016-Jun-26.21738073)
0.00010484 JED
period 1277.179059409438
3.50
1.1956e-05
3.273e-08
d
yr
n .2818712046269083 2.6386e-09 deg/d
Q 2.565378982711279 1.601e-08 AU
  Orbit Determination Parameters
   # obs. used (total)      789  
   data-arc span      5264 days (14.41 yr)  
   first obs. used      1998-11-26  
   last obs. used      2013-04-25  
   planetary ephem.      DE431  
   SB-pert. ephem.      SB431-BIG16  
   condition code      0  
   fit RMS      .5518  
   data source      ORB  
   producer      Otto Matic  
   solution date      2014-Jun-10 10:04:14  

Additional Information
 Earth MOID = 1.05849 AU 
 T_jup = 3.575 
[ show covariance matrix ]

Ephemeris | Orbit Diagram | Orbital Elements | Physical Parameters | Discovery Circumstances | Close-Approach Data ]

Physical Parameter Table
Parameter Symbol Value Units Sigma Reference Notes
absolute magnitude H 14.9 mag n/a MPO263807  

59241 (1999 CC4)          Discovered 1999-Feb-06 by Beijing Schmidt CCD Asteroid Program at Xinglong (327)
Reference: 20030614/Numbers.arcLast Updated: 2004-04-19

[ show close-approach data ]
Alternate Designations
 1999 CC4 = 2001 QX263 
Ephemeris | Orbit Diagram | Orbital Elements | Physical Parameters | Discovery Circumstances | Close-Approach Data ]
ABOUT SSD CREDITS/AWARDS PRIVACY/COPYRIGHT GLOSSARY LINKS
FirstGov 2014-Nov-01 02:01 UT
(server date/time)  
NASA Home Page
Site Manager:   Donald K. Yeomans
Webmaster  Alan B. Chamberlin